Total_Precipitation_Accumulation
2.07 2.24 2.54 3.03 3.84 4.63 5.36 5.52 5.89 5.49 4.89 4.34 3.93 3.82 3.68 3.40 3.29 3.16 3.12 3.06 2.85 2.78 3.03 2.89 3.02 2.84 2.90 2.89 2.96 3.25 3.39 3.03 3.07 3.55 3.20 2.58 2.14 2.17 2.07 2.11 2.20 2.21 2.25
2.14 2.47 3.00 3.39 3.43 3.99 4.74 4.82 4.55 4.40 4.00 3.66 3.53 3.37 3.35 3.03 2.89 2.78 2.91 2.73 2.62 2.74 2.76 2.91 2.76 2.69 2.85 2.86 2.94 3.21 3.16 2.85 3.03 3.54 3.73 3.19 2.78 2.43 2.00 2.04 2.08 2.14 2.38
1.98 2.41 2.80 3.24 3.23 3.63 3.76 3.41 3.30 3.41 3.37 3.23 3.16 3.07 3.10 2.92 2.71 2.60 2.69 2.55 2.36 2.43 2.50 2.47 2.53 2.67 2.41 2.66 2.96 3.09 3.11 3.07 2.96 3.16 3.66 3.49 3.14 2.76 2.35 2.15 2.22 2.39 2.54
1.44 1.73 2.03 2.46 2.67 2.80 2.72 2.69 2.71 2.81 3.03 3.03 2.84 2.71 2.50 2.44 2.42 2.36 2.46 2.53 2.27 2.15 2.17 2.19 2.40 2.53 2.50 2.81 2.52 2.68 2.95 3.17 2.95 2.94 2.94 3.01 3.26 3.28 2.87 2.48 2.30 2.35 2.47
1.16 1.29 1.34 1.57 1.87 2.13 2.20 2.22 2.58 2.71 2.74 2.75 2.75 2.80 2.53 2.40 2.40 2.53 2.77 2.72 2.38 2.03 1.87 2.02 2.25 2.41 2.49 2.60 2.55 2.66 2.67 2.72 2.73 2.80 2.80 2.97 3.24 3.06 2.96 2.82 2.59 2.43 2.25
0.91 1.11 1.14 1.18 1.33 1.48 1.62 1.79 2.13 2.38 2.46 2.42 2.42 2.48 2.51 2.55 2.40 2.39 2.50 2.45 2.31 2.10 1.91 1.95 2.21 2.31 2.41 2.48 2.53 2.52 2.45 2.55 2.63 2.68 2.71 2.91 2.95 2.93 3.02 2.84 2.64 2.50 2.23
0.73 0.92 0.93 0.98 1.14 1.18 1.26 1.51 1.77 1.95 2.03 2.09 2.16 2.23 2.45 2.44 2.25 2.09 2.19 2.24 2.12 2.04 2.05 1.99 2.33 2.48 2.46 2.40 2.52 2.52 2.47 2.61 2.69 2.71 2.72 2.73 2.69 2.78 3.00 3.02 2.71 2.51 2.26
0.69 0.75 0.70 0.74 0.94 1.05 1.10 1.27 1.44 1.56 1.68 1.89 2.09 2.09 2.23 2.08 1.99 2.19 2.09 2.00 1.83 1.91 2.18 2.30 2.32 2.34 2.37 2.35 2.66 2.48 2.48 2.59 2.63 2.52 2.91 2.85 2.68 2.97 3.21 3.38 3.45 3.05 2.74
0.64 0.67 0.63 0.64 0.70 0.80 0.94 1.19 1.46 1.47 1.50 1.63 1.86 1.92 1.89 1.92 2.05 2.28 2.21 2.03 1.97 1.89 2.12 2.27 2.37 2.32 2.34 2.50 2.77 2.69 2.71 2.82 2.71 2.73 3.03 2.92 2.78 2.90 3.07 3.40 3.72 3.73 3.34
0.71 0.77 0.69 0.70 0.71 0.74 0.90 1.02 1.19 1.41 1.60 1.57 1.56 1.56 1.81 1.89 2.02 2.12 2.01 2.01 2.01 2.07 2.18 2.19 2.22 2.19 2.19 2.38 2.77 2.77 2.78 2.96 2.92 2.91 2.97 2.94 2.81 2.94 2.96 3.13 3.51 3.84 3.80
0.70 0.76 0.62 0.62 0.67 0.77 0.85 1.00 1.16 1.42 1.61 1.52 1.51 1.63 1.79 1.88 1.96 2.12 2.08 2.03 2.06 2.18 2.22 2.23 2.25 2.16 2.05 2.19 2.42 2.51 2.72 2.84 2.90 2.88 2.95 2.94 3.09 3.11 3.00 3.13 3.25 3.48 3.67
0.79 0.83 0.76 0.86 0.90 1.01 1.04 1.11 1.19 1.39 1.51 1.50 1.57 1.67 1.78 1.83 1.89 1.99 2.13 2.19 2.17 2.28 2.34 2.40 2.35 2.10 2.06 2.18 2.28 2.39 2.61 2.74 2.82 2.96 3.10 2.86 3.01 3.13 3.06 3.07 3.04 3.19 3.51
0.99 0.97 1.00 1.13 1.11 1.13 1.25 1.29 1.34 1.42 1.54 1.70 1.73 1.68 1.70 1.69 1.79 1.94 2.05 2.17 2.25 2.34 2.41 2.41 2.30 2.22 2.25 2.33 2.40 2.50 2.64 2.70 2.75 2.88 2.88 2.82 2.97 2.84 2.95 3.05 2.97 2.99 3.03
1.04 0.98 1.03 1.09 1.14 1.23 1.40 1.52 1.52 1.48 1.57 1.62 1.68 1.71 1.74 1.81 1.93 2.04 2.12 2.21 2.21 2.24 2.21 2.16 2.25 2.31 2.35 2.39 2.42 2.42 2.43 2.48 2.53 2.52 2.43 2.37 2.42 2.47 2.70 2.70 2.69 2.80 2.90
1.03 0.97 1.01 1.12 1.29 1.34 1.34 1.39 1.44 1.49 1.64 1.64 1.61 1.69 1.87 1.93 1.98 2.00 2.03 2.10 2.11 2.00 2.15 2.15 2.25 2.33 2.28 2.15 2.27 2.30 2.23 2.39 2.31 2.15 2.10 2.10 2.21 2.26 2.35 2.21 2.33 2.56 2.63
1.04 1.05 1.13 1.26 1.27 1.21 1.22 1.24 1.21 1.28 1.50 1.63 1.72 1.80 1.85 1.83 1.95 1.98 1.97 1.99 2.05 2.10 2.15 2.16 2.27 2.33 2.15 2.23 2.28 2.32 2.31 2.33 2.24 2.18 2.11 1.99 2.02 2.04 2.05 2.03 2.07 2.25 2.39
0.94 1.07 1.19 1.22 1.22 1.27 1.27 1.17 1.07 1.17 1.49 1.63 1.68 1.88 1.99 1.92 2.02 2.05 2.06 2.04 2.06 2.21 2.27 2.35 2.40 2.32 2.44 2.43 2.26 2.29 2.22 2.22 2.24 2.26 2.25 1.96 1.77 1.96 1.92 2.04 1.99 1.93 2.00
0.85 0.97 1.07 1.13 1.17 1.19 1.18 1.14 1.14 1.20 1.48 1.72 1.85 2.15 2.33 2.18 2.17 2.20 2.21 2.26 2.38 2.41 2.46 2.49 2.40 2.36 2.44 2.48 2.17 2.12 2.00 2.03 2.11 2.15 2.21 2.23 2.14 2.15 2.19 2.22 2.14 2.00 1.95
0.92 0.94 1.05 1.17 1.30 1.45 1.46 1.41 1.46 1.57 1.75 1.94 2.11 2.39 2.62 2.72 2.66 2.47 2.52 2.61 2.61 2.57 2.63 2.68 2.65 2.52 2.57 2.47 2.11 1.99 1.85 1.92 1.98 2.03 2.02 2.06 1.99 2.08 2.01 1.95 1.89 1.84 1.78
0.97 1.12 1.28 1.31 1.38 1.58 1.60 1.63 1.75 1.98 2.11 2.10 2.13 2.35 2.63 2.74 2.71 2.66 2.84 2.94 2.82 2.72 2.75 2.63 2.50 2.38 2.40 2.38 2.05 1.87 1.74 1.83 1.90 1.99 1.96 1.95 1.87 1.86 1.75 1.63 1.63 1.57 1.59
0.95 1.00 1.03 1.17 1.32 1.48 1.63 1.83 1.92 2.06 2.16 2.22 2.23 2.36 2.60 2.89 2.85 2.90 2.97 3.04 3.03 3.03 3.00 2.88 2.72 2.51 2.42 2.45 2.15 1.94 1.75 1.79 1.83 1.75 1.72 1.74 1.75 1.55 1.49 1.45 1.43 1.46 1.50
0.98 1.03 0.99 1.09 1.29 1.52 1.78 1.92 1.98 2.09 2.27 2.33 2.32 2.38 2.65 2.78 2.81 2.96 3.03 3.15 3.28 3.25 3.21 3.16 2.87 2.74 2.64 2.38 2.10 1.94 1.89 1.93 1.93 1.84 1.78 1.79 1.71 1.47 1.39 1.24 1.19 1.28 1.27
1.11 1.20 1.24 1.23 1.37 1.57 1.79 2.03 2.10 2.13 2.10 2.09 2.12 2.24 2.42 2.56 2.74 2.86 2.81 2.90 3.06 3.01 2.98 2.93 2.76 2.76 2.85 2.66 2.22 1.93 1.85 1.91 1.92 1.98 2.05 1.87 1.71 1.58 1.45 1.41 1.34 1.24 1.15
1.30 1.34 1.47 1.48 1.51 1.60 1.78 1.96 2.00 2.01 2.00 1.95 1.95 2.10 2.34 2.49 2.61 2.68 2.64 2.70 2.75 2.79 2.83 2.82 2.72 2.71 2.82 2.78 2.46 2.12 1.91 1.83 1.76 1.77 1.77 1.68 1.63 1.56 1.43 1.37 1.27 1.12 1.13
1.33 1.35 1.51 1.61 1.62 1.66 1.83 1.96 2.02 2.09 2.14 2.09 2.09 2.22 2.32 2.40 2.56 2.65 2.68 2.70 2.67 2.65 2.66 2.62 2.54 2.53 2.61 2.66 2.49 2.19 1.98 1.89 1.83 1.77 1.74 1.71 1.72 1.62 1.52 1.44 1.38 1.39 1.40
1.44 1.50 1.60 1.65 1.62 1.64 1.79 1.90 2.09 2.29 2.37 2.29 2.26 2.25 2.22 2.29 2.29 2.31 2.27 2.26 2.22 2.23 2.19 2.15 2.06 2.02 2.19 2.22 1.94 1.79 1.81 1.82 1.79 1.67 1.64 1.69 1.73 1.68 1.64 1.60 1.54 1.52 1.52